Location: Aranbee
(34.0885°N, 118.2342°W)
Time: 13:33:44
(UTC+00:00)

Tiros 1 - Pass Details

Date: 29 November 2020
Orbit: 630 x 663 km, 48.4° (Epoch: 21 January)

Event Time Altitude Azimuth Distance (km) Brightness Sun altitude
Rises 23:16:04 0° 258° (WSW) 2,986 11.7 14.4°
Reaches altitude 10° 23:18:37 10° 268° (W) 2,076 10.8 14.0°
Maximum altitude 23:22:57 33° 332° (NNW) 1,111 8.4 13.3°
Drops below altitude 10° 23:27:17 10° 37° (NE) 2,074 9.2 12.6°
Sets 23:29:50 0° 47° (NE) 2,984 9.9 12.2°
